{"data":{"norad_id":58806,"intl_designator":"2024-012V","name":"STARLINK-31138","alt_names":[],"object_type":"PAYLOAD","status":"ACTIVE","operator":null,"country":"US","launch_date":"2024-01-15","launch_site_code":"AFETR","launch_vehicle":null,"mission":null,"orbit_class":"UNKNOWN","rcs_meters":null,"size_class":null,"mass_kg":null,"dimensions":null,"purposes":["comms"],"wikipedia_slug":null,"has_3d_model":false,"image_url":null,"decayed_at":null,"tle_current":{"epoch":"2026-09-20T00:19:41.751552Z","epoch_age_seconds":195052,"freshness":"STALE","line1":"1 58806U 24012V   26263.01367768  .00000301  00000+0  20475-4 0  9998","line2":"2 58806  43.0004 147.9481 0001382 271.2054  88.8639 15.27577347150959","mean_motion":15.27577347,"eccentricity":0.0001382,"inclination_deg":43.0004,"raan_deg":147.9481,"arg_perigee_deg":271.2054,"mean_anomaly_deg":88.8639,"bstar":2.0475e-5,"rev_number":15095,"period_min":94.266912430196,"perigee_km":482.10882307122,"apogee_km":484.0052571039,"semimajor_km":6861.1940400876,"source":"CELESTRAK","updated_at":"2026-09-21T09:00:33.981879Z"}}}